Time,TemperatureF,DewpointF,PressureIn,WindDirection,WindDirectionDegrees,WindSpeedMPH,WindSpeedGustMPH,Humidity,HourlyPrecipIn,Conditions,Clouds,dailyrainin,SolarRadiationWatts/m^2,SoftwareType,DateUTC
2013-07-04 00:22:00,65.6,60.0,29.94,NW,317,0.0,-999.0,83,-99.99,,,0.00,0,weatherlink.com 1.10,2013-07-04 05:22:00,
2013-07-04 00:40:00,65.3,60.0,29.94,NW,317,0.0,-999.0,84,-99.99,,,0.00,0,weatherlink.com 1.10,2013-07-04 05:40:00,
2013-07-04 00:52:00,64.8,60.0,29.94,NW,317,0.0,-999.0,85,-99.99,,,0.00,0,weatherlink.com 1.10,2013-07-04 05:52:00,
2013-07-04 01:07:00,64.5,60.0,29.93,NW,317,0.0,-999.0,86,-99.99,,,0.00,0,weatherlink.com 1.10,2013-07-04 06:07:00,
2013-07-04 01:22:00,64.2,60.0,29.94,NW,312,2.0,-999.0,86,-99.99,,,0.00,0,weatherlink.com 1.10,2013-07-04 06:22:00,
2013-07-04 01:37:00,64.0,60.0,29.93,NW,312,0.0,-999.0,86,-99.99,,,0.00,0,weatherlink.com 1.10,2013-07-04 06:37:00,
2013-07-04 01:52:00,63.5,60.0,29.93,NW,312,0.0,-999.0,87,-99.99,,,0.00,0,weatherlink.com 1.10,2013-07-04 06:52:00,
2013-07-04 02:07:00,63.2,59.0,29.93,NW,312,0.0,-999.0,87,-99.99,,,0.00,0,weatherlink.com 1.10,2013-07-04 07:07:00,
2013-07-04 02:22:00,62.9,59.0,29.93,NW,312,0.0,-999.0,88,-99.99,,,0.00,0,weatherlink.com 1.10,2013-07-04 07:22:00,
2013-07-04 02:37:00,62.4,59.0,29.93,NW,312,0.0,-999.0,88,-99.99,,,0.00,0,weatherlink.com 1.10,2013-07-04 07:37:00,
2013-07-04 02:59:00,62.1,59.0,29.93,NW,312,0.0,-999.0,89,-99.99,,,0.00,0,weatherlink.com 1.10,2013-07-04 07:59:00,
2013-07-04 03:07:00,62.0,59.0,29.93,NW,312,0.0,-999.0,89,-99.99,,,0.00,0,weatherlink.com 1.10,2013-07-04 08:07:00,
2013-07-04 03:22:00,61.8,59.0,29.93,NW,312,0.0,-999.0,89,-99.99,,,0.00,0,weatherlink.com 1.10,2013-07-04 08:22:00,
2013-07-04 03:37:00,61.6,58.0,29.93,NW,312,0.0,-999.0,89,-99.99,,,0.00,0,weatherlink.com 1.10,2013-07-04 08:37:00,
2013-07-04 03:52:00,61.3,58.0,29.93,NW,312,0.0,-999.0,90,-99.99,,,0.00,0,weatherlink.com 1.10,2013-07-04 08:52:00,
2013-07-04 04:10:00,60.9,58.0,29.92,NW,312,0.0,-999.0,90,-99.99,,,0.00,0,weatherlink.com 1.10,2013-07-04 09:10:00,
2013-07-04 04:22:00,60.4,58.0,29.92,NW,312,0.0,-999.0,90,-99.99,,,0.00,0,weatherlink.com 1.10,2013-07-04 09:22:00,
2013-07-04 04:37:00,60.2,58.0,29.93,NW,312,0.0,-999.0,91,-99.99,,,0.00,0,weatherlink.com 1.10,2013-07-04 09:37:00,
2013-07-04 04:52:00,60.1,58.0,29.93,NW,312,0.0,-999.0,91,-99.99,,,0.00,0,weatherlink.com 1.10,2013-07-04 09:52:00,
2013-07-04 05:07:00,59.9,58.0,29.93,NW,312,0.0,-999.0,92,-99.99,,,0.00,0,weatherlink.com 1.10,2013-07-04 10:07:00,
2013-07-04 05:22:00,59.5,57.0,29.93,NW,312,0.0,-999.0,92,-99.99,,,0.00,0,weatherlink.com 1.10,2013-07-04 10:22:00,
2013-07-04 05:37:00,59.2,57.0,29.94,NNW,341,1.0,-999.0,92,-99.99,,,0.00,0,weatherlink.com 1.10,2013-07-04 10:37:00,
2013-07-04 05:52:00,59.0,57.0,29.95,NW,322,0.0,-999.0,93,-99.99,,,0.00,0,weatherlink.com 1.10,2013-07-04 10:52:00,
2013-07-04 06:07:00,58.9,57.0,29.95,NW,322,0.0,-999.0,93,-99.99,,,0.00,9,weatherlink.com 1.10,2013-07-04 11:07:00,
2013-07-04 06:30:00,58.7,57.0,29.95,NW,322,0.0,-999.0,93,-99.99,,,0.00,18,weatherlink.com 1.10,2013-07-04 11:30:00,
2013-07-04 06:37:00,58.7,57.0,29.95,NW,322,0.0,-999.0,93,-99.99,,,0.00,21,weatherlink.com 1.10,2013-07-04 11:37:00,
2013-07-04 06:52:00,58.9,57.0,29.96,NW,309,1.0,-999.0,93,-99.99,,,0.00,28,weatherlink.com 1.10,2013-07-04 11:52:00,
2013-07-04 07:07:00,59.2,57.0,29.96,NNW,331,0.0,-999.0,93,-99.99,,,0.00,39,weatherlink.com 1.10,2013-07-04 12:07:00,
2013-07-04 07:22:00,59.9,58.0,29.96,NNE,32,3.0,-999.0,92,-99.99,,,0.00,47,weatherlink.com 1.10,2013-07-04 12:22:00,
2013-07-04 07:38:00,61.0,58.0,29.96,NNE,32,0.0,-999.0,90,-99.99,,,0.00,54,weatherlink.com 1.10,2013-07-04 12:38:00,
2013-07-04 07:52:00,62.0,58.0,29.96,North,9,0.0,-999.0,87,-99.99,,,0.00,63,weatherlink.com 1.10,2013-07-04 12:52:00,
2013-07-04 08:07:00,63.1,59.0,29.97,NNW,328,0.0,-999.0,86,-99.99,,,0.00,72,weatherlink.com 1.10,2013-07-04 13:07:00,
2013-07-04 08:22:00,64.2,59.0,29.96,NNW,341,0.0,-999.0,83,-99.99,,,0.00,104,weatherlink.com 1.10,2013-07-04 13:22:00,
2013-07-04 08:37:00,65.5,60.0,29.96,NW,307,0.0,-999.0,81,-99.99,,,0.00,102,weatherlink.com 1.10,2013-07-04 13:37:00,
2013-07-04 08:52:00,67.1,60.0,29.96,WNW,302,0.0,-999.0,77,-99.99,,,0.00,436,weatherlink.com 1.10,2013-07-04 13:52:00,
2013-07-04 09:07:00,69.1,60.0,29.96,NNW,335,0.0,-999.0,73,-99.99,,,0.00,480,weatherlink.com 1.10,2013-07-04 14:07:00,
2013-07-04 09:23:00,70.4,61.0,29.96,NNW,338,1.0,-999.0,73,-99.99,,,0.00,522,weatherlink.com 1.10,2013-07-04 14:23:00,
2013-07-04 09:38:00,71.6,61.0,29.96,NNE,13,3.0,-999.0,70,-99.99,,,0.00,548,weatherlink.com 1.10,2013-07-04 14:38:00,
2013-07-04 10:01:00,73.0,60.0,29.96,NNE,22,2.0,-999.0,63,-99.99,,,0.00,628,weatherlink.com 1.10,2013-07-04 15:01:00,
2013-07-04 10:08:00,73.7,59.0,29.96,North,355,3.0,-999.0,61,-99.99,,,0.00,649,weatherlink.com 1.10,2013-07-04 15:08:00,
2013-07-04 10:23:00,74.6,61.0,29.96,NNE,19,1.0,-999.0,62,-99.99,,,0.00,689,weatherlink.com 1.10,2013-07-04 15:23:00,
2013-07-04 10:38:00,75.6,61.0,29.95,NNW,336,1.0,-999.0,60,-99.99,,,0.00,722,weatherlink.com 1.10,2013-07-04 15:38:00,
2013-07-04 10:53:00,76.1,59.0,29.95,NE,38,3.0,-999.0,56,-99.99,,,0.00,756,weatherlink.com 1.10,2013-07-04 15:53:00,
2013-07-04 11:10:00,77.2,61.0,29.95,ENE,57,3.0,-999.0,57,-99.99,,,0.00,795,weatherlink.com 1.10,2013-07-04 16:10:00,
2013-07-04 11:23:00,77.6,60.0,29.95,NNW,345,3.0,-999.0,54,-99.99,,,0.00,821,weatherlink.com 1.10,2013-07-04 16:23:00,
2013-07-04 11:38:00,78.8,61.0,29.95,North,5,5.0,-999.0,55,-99.99,,,0.00,847,weatherlink.com 1.10,2013-07-04 16:38:00,
2013-07-04 11:53:00,79.4,60.0,29.95,North,355,3.0,-999.0,52,-99.99,,,0.00,867,weatherlink.com 1.10,2013-07-04 16:53:00,
2013-07-04 12:08:00,80.3,62.0,29.95,NNW,334,0.0,-999.0,53,-99.99,,,0.00,886,weatherlink.com 1.10,2013-07-04 17:08:00,
2013-07-04 12:23:00,80.1,60.0,29.94,NNW,345,2.0,-999.0,51,-99.99,,,0.00,895,weatherlink.com 1.10,2013-07-04 17:23:00,
2013-07-04 12:38:00,80.9,62.0,29.94,North,5,3.0,-999.0,53,-99.99,,,0.00,904,weatherlink.com 1.10,2013-07-04 17:38:00,
2013-07-04 12:53:00,81.2,61.0,29.94,WNW,285,7.0,-999.0,50,-99.99,,,0.00,909,weatherlink.com 1.10,2013-07-04 17:53:00,
2013-07-04 13:08:00,81.6,61.0,29.94,NNW,347,5.0,-999.0,49,-99.99,,,0.00,912,weatherlink.com 1.10,2013-07-04 18:08:00,
2013-07-04 13:32:00,81.6,60.0,29.94,ENE,61,0.0,-999.0,48,-99.99,,,0.00,909,weatherlink.com 1.10,2013-07-04 18:32:00,
2013-07-04 13:38:00,81.6,60.0,29.94,NNW,347,3.0,-999.0,48,-99.99,,,0.00,909,weatherlink.com 1.10,2013-07-04 18:38:00,
2013-07-04 13:53:00,82.2,60.0,29.93,North,5,4.0,-999.0,47,-99.99,,,0.00,893,weatherlink.com 1.10,2013-07-04 18:53:00,
2013-07-04 14:08:00,82.8,59.0,29.93,NNE,24,1.0,-999.0,44,-99.99,,,0.00,888,weatherlink.com 1.10,2013-07-04 19:08:00,
2013-07-04 14:23:00,82.8,62.0,29.92,North,5,2.0,-999.0,49,-99.99,,,0.00,181,weatherlink.com 1.10,2013-07-04 19:23:00,
2013-07-04 14:40:00,82.4,60.0,29.92,NNE,22,4.0,-999.0,47,-99.99,,,0.00,165,weatherlink.com 1.10,2013-07-04 19:40:00,
2013-07-04 14:53:00,82.2,60.0,29.92,NW,326,4.0,-999.0,47,-99.99,,,0.00,109,weatherlink.com 1.10,2013-07-04 19:53:00,
2013-07-04 15:08:00,82.2,59.0,29.92,North,5,6.0,-999.0,46,-99.99,,,0.00,102,weatherlink.com 1.10,2013-07-04 20:08:00,
2013-07-04 15:23:00,82.6,59.0,29.92,North,360,4.0,-999.0,45,-99.99,,,0.00,98,weatherlink.com 1.10,2013-07-04 20:23:00,
2013-07-04 15:38:00,82.6,60.0,29.92,NNW,345,4.0,-999.0,47,-99.99,,,0.00,584,weatherlink.com 1.10,2013-07-04 20:38:00,
2013-07-04 15:53:00,82.4,60.0,29.91,NNE,22,1.0,-999.0,47,-99.99,,,0.00,148,weatherlink.com 1.10,2013-07-04 20:53:00,
2013-07-04 16:09:00,82.8,60.0,29.91,NE,35,1.0,-999.0,46,-99.99,,,0.00,91,weatherlink.com 1.10,2013-07-04 21:09:00,
2013-07-04 16:24:00,82.4,58.0,29.91,NE,51,5.0,-999.0,44,-99.99,,,0.00,125,weatherlink.com 1.10,2013-07-04 21:24:00,
2013-07-04 16:39:00,82.4,60.0,29.91,ENE,57,2.0,-999.0,46,-99.99,,,0.00,79,weatherlink.com 1.10,2013-07-04 21:39:00,
2013-07-04 17:01:00,82.4,58.0,29.91,NNE,30,3.0,-999.0,44,-99.99,,,0.00,70,weatherlink.com 1.10,2013-07-04 22:01:00,
2013-07-04 17:09:00,82.4,60.0,29.91,NNW,347,4.0,-999.0,47,-99.99,,,0.00,69,weatherlink.com 1.10,2013-07-04 22:09:00,
2013-07-04 17:24:00,82.0,57.0,29.90,NNW,347,2.0,-999.0,43,-99.99,,,0.00,69,weatherlink.com 1.10,2013-07-04 22:24:00,
2013-07-04 17:39:00,82.0,58.0,29.89,North,360,2.0,-999.0,44,-99.99,,,0.00,431,weatherlink.com 1.10,2013-07-04 22:39:00,
2013-07-04 17:54:00,82.2,60.0,29.89,NNE,12,2.0,-999.0,47,-99.99,,,0.00,60,weatherlink.com 1.10,2013-07-04 22:54:00,
2013-07-04 18:12:00,82.0,59.0,29.89,North,355,2.0,-999.0,45,-99.99,,,0.00,62,weatherlink.com 1.10,2013-07-04 23:12:00,
2013-07-04 18:24:00,81.6,56.0,29.89,North,5,2.0,-999.0,42,-99.99,,,0.00,121,weatherlink.com 1.10,2013-07-04 23:24:00,
2013-07-04 18:39:00,81.4,59.0,29.89,NW,325,2.0,-999.0,46,-99.99,,,0.00,79,weatherlink.com 1.10,2013-07-04 23:39:00,
2013-07-04 18:54:00,81.1,58.0,29.89,North,5,2.0,-999.0,46,-99.99,,,0.00,40,weatherlink.com 1.10,2013-07-04 23:54:00,
2013-07-04 19:09:00,80.5,58.0,29.89,NNE,13,3.0,-999.0,47,-99.99,,,0.00,33,weatherlink.com 1.10,2013-07-05 00:09:00,
2013-07-04 19:24:00,80.1,59.0,29.88,North,5,3.0,-999.0,48,-99.99,,,0.00,30,weatherlink.com 1.10,2013-07-05 00:24:00,
2013-07-04 19:39:00,79.4,60.0,29.88,NE,44,1.0,-999.0,51,-99.99,,,0.00,25,weatherlink.com 1.10,2013-07-05 00:39:00,
2013-07-04 19:54:00,79.0,60.0,29.88,NE,42,1.0,-999.0,53,-99.99,,,0.00,21,weatherlink.com 1.10,2013-07-05 00:54:00,
2013-07-04 20:09:00,78.1,61.0,29.88,NNW,335,3.0,-999.0,55,-99.99,,,0.00,16,weatherlink.com 1.10,2013-07-05 01:09:00,
2013-07-04 20:31:00,76.7,61.0,29.87,NNW,327,0.0,-999.0,58,-99.99,,,0.00,7,weatherlink.com 1.10,2013-07-05 01:31:00,
2013-07-04 20:39:00,76.1,61.0,29.87,North,5,0.0,-999.0,59,-99.99,,,0.00,5,weatherlink.com 1.10,2013-07-05 01:39:00,
2013-07-04 20:54:00,75.4,60.0,29.87,NNW,333,3.0,-999.0,59,-99.99,,,0.00,0,weatherlink.com 1.10,2013-07-05 01:54:00,
2013-07-04 21:09:00,74.6,61.0,29.88,NNW,331,0.0,-999.0,62,-99.99,,,0.00,0,weatherlink.com 1.10,2013-07-05 02:09:00,
2013-07-04 21:24:00,73.5,61.0,29.88,NNW,331,0.0,-999.0,65,-99.99,,,0.00,0,weatherlink.com 1.10,2013-07-05 02:24:00,
2013-07-04 21:40:00,72.5,61.0,29.88,NNW,331,0.0,-999.0,67,-99.99,,,0.00,0,weatherlink.com 1.10,2013-07-05 02:40:00,
2013-07-04 21:54:00,71.6,61.0,29.89,NNW,331,1.0,-999.0,69,-99.99,,,0.00,0,weatherlink.com 1.10,2013-07-05 02:54:00,
2013-07-04 22:09:00,71.1,61.0,29.89,NNW,331,0.0,-999.0,70,-99.99,,,0.00,0,weatherlink.com 1.10,2013-07-05 03:09:00,
2013-07-04 22:24:00,70.8,61.0,29.89,NNW,331,0.0,-999.0,70,-99.99,,,0.00,0,weatherlink.com 1.10,2013-07-05 03:24:00,
2013-07-04 22:39:00,70.1,60.0,29.89,NNW,331,0.0,-999.0,71,-99.99,,,0.00,0,weatherlink.com 1.10,2013-07-05 03:39:00,
2013-07-04 22:54:00,69.6,60.0,29.90,NNW,331,1.0,-999.0,71,-99.99,,,0.00,0,weatherlink.com 1.10,2013-07-05 03:54:00,
2013-07-04 23:09:00,69.3,60.0,29.90,NNW,331,1.0,-999.0,72,-99.99,,,0.00,0,weatherlink.com 1.10,2013-07-05 04:09:00,
2013-07-04 23:24:00,68.9,60.0,29.89,NNW,331,0.0,-999.0,72,-99.99,,,0.00,0,weatherlink.com 1.10,2013-07-05 04:24:00,
2013-07-04 23:39:00,68.6,59.0,29.89,NNW,331,0.0,-999.0,72,-99.99,,,0.00,0,weatherlink.com 1.10,2013-07-05 04:39:00,